SCP
0 0 0 0 0 0 0 0 0 0 0 -0 0 -0 -0 -0 -0 0 0 0 0 0 0 0 0 0 0 0 0 -0 0 0 0 0 0 0 0 0 0 -0 0 0 0 0 0
0 0 0 0 0 0 0 0 0 0 0 0 0 -0 -0 -0 -0 0 0 0 0 0 0 0 0 0 0 0 0 0 0 -0 0 0 0 0 0 0 0 0 0 0 0 0 0
0 0 0 0 0 0 0 0 0 0 0 0 0 -0 -0 -0 -0 0 0 0 0 0 0 0 0 0 0 0 0 -0 -0 0 0 0 -0 0 0 -0 0 0 0 0 0 0 0
0 0 0 0 0 0 0 0 0 0 0 0 0 -0 -0 -0 0 0 0 0 0 0 0 0 0 0 0 0 0 -0 -0 -0 0 0 0 -0 0 0 0 0 0 0 0 0 0
0 0 0 0 0 0 0 0 0 0 0 0 -0 -0 -0 0 0 0 0 0 0 0 0 0 0 0 0 0 0 0 0 -0 0 0 0 0 0 0 0 0 0 0 0 0 0
0 0 0 0 0 0 0 0 0 0 0 0 0 -0 0 0 0 0 0 0 0 0 0 0 0 0 0 0 -0 0 0 0 -0 -0 0 0 0 -0 0 0 0 0 0 0 0
0 0 0 0 0 0 0 0 0 0 0 0 0 0 0 0 0 0 0 0 0 0 0 0 0 0 0 -0 0 -0 0 -0 -0 -0 0 0 0 0 0 0 0 0 0 0 0
0 0 0 0 0 0 0 0 0 0 0 0 0 0 0 0 0 0 0 0 0 0 0 0 0 0 0 0 -0 -0 -0 0 0 -0 -0 -0 0 0 0 0 0 0 0 0 0
0 0 0 0 0 0 0 0 0 0 0 0 0 0 0 0 0 0 0 0 0 0 0 0 0 0 0 0 0 0 0 -0 0 0 0 -0 0 -0 0 -0 0 0 -0 0 0
0 0 0 0 0 0 -0 0 0 0 0 0 0 0 0 0 0 0 0 0 0 0 0 0 0 0 0 -0 -0 0 0 -0 0 0 0 0 0 0 0 0 0 -0 -0 -0 0
0 0 0 0 0 0 0 0 0 0 0 0 0 0 0 0 0 0 0 0 0 0 0 0 0 0 0 0 -0 0 0 -0 -0 0 0 0 0 -0 0 0 0 -0 0 -0 0
0 0 0 0 0 0 0 0 0 0 0 0 0 0 0 0 0 0 0 0 0 0 0 0 0 0 0 0 0 0 -0 -0 0 -0 0 0 0 -0 -0 -0 0 0 -0 0 0
0 0 0 0 0 0 0 0 0 0 0 0 0 0 0 0 0 0 0 0 0 0 0 0 0 0 0 0 0 -0 -0 -0 0 -0 0 0 0 0 -0 -0 -0 -0 -0 0 0
0 0 0 0 -0 0 0 0 0 0 0 0 0 0 0 0 0 0 0 0 0 0 0 0 0 0 0 -0 0 -0 -0 -0 0 0 0 0 0 0 -0 -0 0 0 0 0 0
0 0 0 0 0 0 0 0 0 0 0 0 0 0 0 0 0 0 0 0 0 0 0 0 0 0 0 0 0 -0 -0 -0 0 0 0 0 0 0 0 0 -0 0 0 0 0
0 0 0 0 0 0 0 0 0 0 0 0 0 0 0 0 0 0 0 0 0 0 0 0 0 0 0 -0 0 -0 -0 0 0 0 0 0 0 0 0 0 0 0 0 0 0
0 0 0 0 0 0 0 0 0 0 0 0 0 0 0 0 0 0 0 0 0 0 0 0 0 0 -0 0 0 -0 -0 0 0 0 0 0 0 0 0 0 0 0 0 0 0
0 0 0 0 0 0 0 0 0 0 0 0 0 0 0 0 0 0 0 0 0 0 0 0 0 0 -0 0 -0 -0 0 0 0 0 0 0 0 0 0 0 -0 -0 0 0 0
0 0 0 0 0 0 0 0 0 0 0 0 0 0 0 0 0 0 0 0 0 0 0 0 0 0 -0 0 -0 -0 0 0 0 0 0 0 0 -0 -0 0 -0 -0 0 0 0
0 0 0 0 0 0 0 0 0 0 0 0 0 0 0 0 0 0 0 0 0 0 0 0 0 0 -0 -0 -0 -0 0 0 0 0 0 0 0 0 0 0 -0 -0 0 0 0
0 0 0 0 0 0 0 0 0 0 0 0 0 0 0 0 0 0 0 0 0 0 -0 0 0 -0 0 0 0 -0 0 0 0 0 0 0 0 0 0 0 0 -0 0 0 0
0 0 0 0 0 0 0 0 0 0 0 0 0 0 0 0 0 0 0 0 0 0 0 0 0 -0 0 0 0 0 -0 0 0 0 0 0 0 0 -0 0 0 -0 0 0 0
0 0 0 0 0 0 0 0 0 0 0 0 0 0 0 0 0 0 0 0 0 0 0 0 0 -0 0 0 -0 0 -0 0 0 0 0 0 0 0 -0 0 0 -0 0 0 0
0 0 0 0 0 0 0 0 0 0 0 0 0 0 0 0 0 0 0 0 0 0 0 -0 0 0 0 0 -0 0 -0 -0 0 0 0 0 0 0 -0 -0 0 0 0 0 0
0 0 0 0 0 0 0 0 0 0 0 0 0 0 0 0 0 0 0 0 0 0 0 0 -0 0 0 -0 0 0 0 0 0 0 0 0 0 0 0 0 0 0 0 0 0
0 0 0 0 0 0 0 0 0 0 0 0 0 0 0 0 0 0 0 0 0 0 0 0 0 0 0 0 0 0 0 0 0 0 0 0 0 0 0 0 0 0 0 0 0
0 0 0 0 0 0 0 0 0 0 0 0 0 0 0 0 0 0 0 0 0 0 0 0 0 -0 -0 0 0 0 0 0 0 0 0 0 0 0 0 0 0 0 0 0 0
Wind_Speed_500mb
41 46 49 51 53 52 54 56 47 31 24 18 14 11 13 19 22 20 21 25 31 36 34 31 27 29 34 28 33 38 11 23 39 43 47 46 20 43 53 54 66 35 40 11 10
41 46 50 52 54 52 56 54 39 23 19 14 15 15 8 8 7 20 24 28 32 35 31 32 33 32 30 29 25 22 26 41 41 17 31 29 27 31 40 40 52 37 58 33 10
40 45 51 54 53 53 56 49 28 19 16 13 11 16 16 12 11 19 31 32 35 31 27 26 29 33 34 27 27 33 30 44 39 36 22 28 25 23 40 36 36 42 49 39 10
39 45 51 54 52 51 53 39 21 14 14 11 14 9 17 4 7 27 33 36 42 33 28 27 30 30 24 17 26 20 35 38 42 45 30 20 31 29 45 38 34 60 33 31 15
39 45 52 55 51 51 49 26 15 12 10 8 15 22 15 4 16 28 38 40 43 30 23 24 30 30 21 30 29 32 34 35 38 44 51 36 42 33 45 43 40 19 29 22 10
40 46 52 54 50 51 41 15 11 14 9 4 5 19 17 14 29 31 42 44 33 23 22 21 23 27 29 31 22 28 35 44 46 46 43 31 36 39 47 37 44 31 29 4 13
41 47 53 53 46 50 32 10 7 16 14 5 6 7 10 15 32 30 40 46 27 24 21 20 22 19 33 29 13 28 27 33 29 33 29 32 35 44 52 43 24 37 42 19 23
42 48 54 54 43 46 23 9 5 7 10 29 1 9 7 23 39 31 46 49 27 21 16 19 19 24 21 26 30 17 13 12 6 12 21 25 22 21 50 45 32 28 24 29 33
43 50 56 55 42 41 16 10 14 12 12 12 22 10 5 32 48 41 50 51 29 17 16 16 15 17 24 23 19 5 20 23 10 17 14 23 18 9 14 26 21 11 12 17 33
42 51 56 55 40 38 6 3 14 34 7 10 19 9 13 51 39 41 57 40 22 23 12 12 15 12 19 19 16 23 23 25 20 19 16 18 24 8 4 13 13 6 7 13 25
41 50 55 54 36 39 19 10 10 3 35 14 8 9 39 49 23 50 68 36 23 15 17 4 12 20 27 20 14 24 19 26 17 16 16 17 20 13 13 5 6 17 13 10 22
42 50 54 50 31 35 22 6 4 7 4 11 14 15 32 40 28 49 64 27 24 22 24 9 16 27 24 12 19 21 15 17 11 17 14 12 13 19 16 16 8 3 7 10 21
42 49 50 45 22 36 29 10 10 7 5 6 10 19 35 35 18 51 63 32 22 20 25 16 23 26 17 12 25 10 16 23 23 28 25 15 10 13 16 15 2 14 16 14 11
42 47 45 40 20 28 21 12 5 5 3 16 17 19 39 29 4 40 55 17 19 21 24 7 24 25 27 20 23 9 20 25 27 17 3 7 9 13 19 12 17 28 21 22 7
41 45 39 36 21 15 18 8 5 6 4 20 11 17 32 36 29 41 43 19 19 25 13 20 23 21 25 26 24 14 31 20 21 12 18 8 3 13 29 21 31 27 40 27 2
39 43 35 37 27 27 18 5 6 4 8 10 11 28 35 38 21 34 44 46 10 14 17 18 14 9 20 36 12 30 15 12 13 6 6 10 9 18 16 25 30 31 26 21 13
37 39 31 33 18 24 15 5 3 9 10 19 17 24 22 33 21 35 24 38 30 22 27 34 5 24 32 23 5 30 18 5 7 7 3 9 14 13 15 30 28 30 46 42 19
35 34 26 31 27 23 11 2 11 3 9 13 19 24 15 27 16 27 19 27 31 29 17 21 10 32 28 19 16 24 13 10 5 5 12 2 8 10 23 35 42 43 42 52 48
35 26 23 30 25 18 4 11 5 8 9 20 17 11 10 26 19 20 26 18 21 31 16 17 10 27 21 20 19 15 12 9 10 11 4 9 9 25 39 42 52 55 56 57 54
28 14 17 28 21 18 9 8 4 7 10 9 13 12 13 26 21 24 27 12 20 31 12 10 15 16 21 19 18 16 19 5 5 6 7 12 12 18 44 44 43 43 55 65 57
18 5 16 21 12 16 8 8 6 7 9 9 9 12 10 14 15 14 17 8 24 27 19 12 5 20 12 17 19 20 17 12 8 7 8 6 9 15 29 28 34 36 48 57 59
6 4 17 11 8 9 6 5 4 6 7 4 5 10 10 18 9 11 15 11 30 30 18 10 8 12 8 9 6 9 24 16 10 15 8 7 9 19 27 28 41 49 54 57 55
2 2 12 4 5 6 8 8 6 3 7 6 6 8 7 11 8 10 13 15 23 20 25 16 5 14 4 6 16 12 35 25 19 10 15 12 9 23 33 35 48 53 63 69 66
0 2 13 20 12 9 10 7 6 5 4 6 5 4 11 6 4 11 18 9 23 17 24 16 6 7 13 17 17 20 29 31 15 7 16 15 14 35 41 38 43 59 59 61 60
4 5 4 5 8 16 8 4 6 4 2 3 1 6 10 5 7 7 11 18 10 15 19 10 7 19 22 12 3 22 27 25 21 22 14 20 11 30 35 34 39 45 56 59 66
3 10 11 11 12 11 5 2 4 5 2 2 1 11 9 5 5 13 14 6 6 18 11 14 9 23 6 9 4 8 31 28 18 24 17 18 8 35 43 43 41 45 56 56 59
8 19 8 9 7 4 4 7 6 6 4 2 5 13 9 7 15 22 24 29 27 17 11 11 14 13 4 12 11 10 19 21 9 19 22 15 22 43 38 46 36 43 53 54 65
Wind_Direction_500mb
18 12 8 2 359 356 355 354 356 3 10 19 52 77 101 97 58 35 21 353 341 335 333 326 322 313 312 283 266 258 244 258 262 258 261 273 303 279 241 243 261 288 286 33 351
14 7 4 359 358 356 354 354 356 9 27 49 67 52 167 96 51 24 351 342 333 331 333 327 326 326 312 294 270 247 249 257 256 306 283 280 279 281 290 211 256 269 259 280 334
11 5 1 357 357 356 354 355 5 24 42 61 60 40 20 218 261 357 337 340 339 335 322 316 312 311 298 304 279 259 251 274 287 250 179 289 297 270 284 265 216 253 259 284 276
9 4 358 357 357 355 353 357 19 52 45 69 53 42 55 150 343 337 334 335 335 331 321 315 314 305 306 302 305 271 269 278 278 285 274 222 286 274 268 272 283 229 256 242 267
6 1 359 357 355 355 353 3 36 32 39 103 60 57 25 354 343 336 336 332 331 319 313 310 310 322 305 310 305 284 276 288 287 274 270 259 240 261 272 268 289 258 250 261 280
2 0 359 358 354 355 355 18 51 42 48 115 94 54 20 31 338 321 331 336 336 333 314 306 308 308 289 299 292 291 298 289 273 260 239 246 246 238 253 258 255 240 233 260 336
359 357 359 359 355 355 2 27 85 56 32 327 252 301 322 7 350 339 340 334 331 324 308 309 301 296 311 309 317 289 289 278 243 239 223 238 243 241 250 249 233 226 247 262 310
357 356 357 0 359 358 7 19 298 295 38 33 345 340 329 341 344 340 344 339 326 315 302 295 293 286 274 301 279 243 228 290 101 225 210 211 255 249 231 223 222 244 277 268 303
353 354 357 359 3 0 7 59 19 301 281 344 8 296 337 340 352 350 345 335 328 331 306 295 292 283 304 316 287 268 341 351 342 52 322 206 257 180 220 176 204 235 292 306 305
352 353 356 359 2 7 336 336 30 33 351 356 356 259 346 339 332 345 341 336 329 329 305 285 261 308 358 359 354 332 335 323 319 0 325 238 246 308 112 178 138 94 305 283 291
351 354 356 357 360 12 13 275 305 184 43 55 24 23 328 332 344 350 348 342 343 306 336 256 314 355 346 344 322 301 293 304 311 346 283 263 240 180 146 125 48 35 339 282 282
351 353 356 356 3 15 30 62 112 155 55 35 8 339 348 344 339 357 353 357 342 341 340 220 17 351 322 333 319 295 293 328 327 280 299 276 246 163 164 150 156 100 28 332 304
351 352 356 358 356 11 31 53 142 122 290 356 354 346 350 343 352 356 0 342 349 335 355 330 3 331 322 340 351 348 357 340 307 312 268 275 216 169 143 120 150 15 358 325 309
347 349 357 2 15 1 5 22 125 115 270 13 353 12 351 348 241 357 0 351 2 336 342 311 356 344 335 5 346 302 356 320 306 309 296 351 128 126 145 153 34 358 12 328 223
344 348 356 4 358 358 353 24 102 75 300 357 3 350 358 31 339 354 1 355 10 334 326 20 348 350 353 346 332 327 322 293 278 298 322 127 240 30 42 17 355 348 341 343 81
342 345 357 1 1 358 7 53 88 262 19 7 1 353 352 9 10 348 11 17 28 339 323 306 296 311 346 313 301 324 333 249 242 312 260 336 1 38 16 352 356 355 333 306 13
338 343 356 357 354 356 5 58 2 43 347 341 338 341 339 350 7 4 20 40 36 357 359 324 74 7 5 343 331 355 343 190 179 209 49 18 61 50 14 2 358 357 357 1 20
336 341 354 356 359 4 26 281 51 345 360 356 334 326 23 13 359 352 8 23 33 15 303 340 329 8 352 356 313 313 338 352 319 161 121 102 90 56 35 6 6 8 358 17 27
336 341 355 354 1 13 323 50 44 19 353 338 317 343 9 13 348 349 17 26 18 15 6 349 301 341 355 337 346 341 6 313 286 240 233 102 75 227 9 10 6 6 3 360 1
336 332 338 354 8 43 58 93 59 33 348 341 357 9 331 351 360 4 12 33 356 3 29 2 295 327 337 330 11 336 328 296 280 286 141 94 64 5 3 359 350 0 360 350 357
335 298 330 353 26 60 69 62 96 58 17 7 348 320 341 347 334 349 355 28 8 349 349 318 258 316 343 20 354 5 21 340 287 320 329 137 78 14 6 3 348 352 357 350 350
336 277 342 7 29 52 86 81 89 54 38 30 323 326 326 333 324 326 345 356 354 342 348 18 301 296 329 22 347 315 17 349 342 350 347 318 83 18 14 1 0 356 357 356 3
264 327 354 61 80 98 114 97 75 65 39 20 16 5 346 319 319 341 343 357 357 354 360 350 346 308 181 218 21 4 355 338 308 247 8 326 86 17 7 8 7 2 1 1 3
90 33 29 58 67 107 121 107 125 81 79 13 342 302 348 318 324 308 332 349 344 355 351 328 290 330 316 324 332 353 356 358 327 339 334 33 23 6 2 359 357 1 1 2 4
105 100 88 51 57 97 88 145 127 121 80 15 263 0 349 298 306 318 336 334 345 10 0 16 286 331 303 282 333 31 13 10 20 355 27 343 36 9 353 346 347 356 359 2 7
145 135 91 88 109 105 14 102 131 130 106 105 308 333 306 248 322 306 333 324 331 340 354 341 310 326 278 220 236 358 22 6 21 3 358 348 62 1 343 343 349 360 0 357 358
172 147 150 145 128 155 109 149 142 144 162 319 327 313 290 300 307 295 286 277 279 303 319 332 333 337 322 333 311 207 12 358 354 23 343 15 338 338 341 344 346 3 358 352 355
Wind_Speed_850mb
41 46 49 51 53 52 54 56 47 31 24 18 14 11 13 19 22 20 21 25 31 36 34 31 27 29 34 28 33 38 11 23 39 43 47 46 20 43 53 54 66 35 40 11 10
41 46 50 52 54 52 56 54 39 23 19 14 15 15 8 8 7 20 24 28 32 35 31 32 33 32 30 29 25 22 26 41 41 17 31 29 27 31 40 40 52 37 58 33 10
40 45 51 54 53 53 56 49 28 19 16 13 11 16 16 12 11 19 31 32 35 31 27 26 29 33 34 27 27 33 30 44 39 36 22 28 25 23 40 36 36 42 49 39 10
39 45 51 54 52 51 53 39 21 14 14 11 14 9 17 4 7 27 33 36 42 33 28 27 30 30 24 17 26 20 35 38 42 45 30 20 31 29 45 38 34 60 33 31 15
39 45 52 55 51 51 49 26 15 12 10 8 15 22 15 4 16 28 38 40 43 30 23 24 30 30 21 30 29 32 34 35 38 44 51 36 42 33 45 43 40 19 29 22 10
40 46 52 54 50 51 41 15 11 14 9 4 5 19 17 14 29 31 42 44 33 23 22 21 23 27 29 31 22 28 35 44 46 46 43 31 36 39 47 37 44 31 29 4 13
41 47 53 53 46 50 32 10 7 16 14 5 6 7 10 15 32 30 40 46 27 24 21 20 22 19 33 29 13 28 27 33 29 33 29 32 35 44 52 43 24 37 42 19 23
42 48 54 54 43 46 23 9 5 7 10 29 1 9 7 23 39 31 46 49 27 21 16 19 19 24 21 26 30 17 13 12 6 12 21 25 22 21 50 45 32 28 24 29 33
43 50 56 55 42 41 16 10 14 12 12 12 22 10 5 32 48 41 50 51 29 17 16 16 15 17 24 23 19 5 20 23 10 17 14 23 18 9 14 26 21 11 12 17 33
42 51 56 55 40 38 6 3 14 34 7 10 19 9 13 51 39 41 57 40 22 23 12 12 15 12 19 19 16 23 23 25 20 19 16 18 24 8 4 13 13 6 7 13 25
41 50 55 54 36 39 19 10 10 3 35 14 8 9 39 49 23 50 68 36 23 15 17 4 12 20 27 20 14 24 19 26 17 16 16 17 20 13 13 5 6 17 13 10 22
42 50 54 50 31 35 22 6 4 7 4 11 14 15 32 40 28 49 64 27 24 22 24 9 16 27 24 12 19 21 15 17 11 17 14 12 13 19 16 16 8 3 7 10 21
42 49 50 45 22 36 29 10 10 7 5 6 10 19 35 35 18 51 63 32 22 20 25 16 23 26 17 12 25 10 16 23 23 28 25 15 10 13 16 15 2 14 16 14 11
42 47 45 40 20 28 21 12 5 5 3 16 17 19 39 29 4 40 55 17 19 21 24 7 24 25 27 20 23 9 20 25 27 17 3 7 9 13 19 12 17 28 21 22 7
41 45 39 36 21 15 18 8 5 6 4 20 11 17 32 36 29 41 43 19 19 25 13 20 23 21 25 26 24 14 31 20 21 12 18 8 3 13 29 21 31 27 40 27 2
39 43 35 37 27 27 18 5 6 4 8 10 11 28 35 38 21 34 44 46 10 14 17 18 14 9 20 36 12 30 15 12 13 6 6 10 9 18 16 25 30 31 26 21 13
37 39 31 33 18 24 15 5 3 9 10 19 17 24 22 33 21 35 24 38 30 22 27 34 5 24 32 23 5 30 18 5 7 7 3 9 14 13 15 30 28 30 46 42 19
35 34 26 31 27 23 11 2 11 3 9 13 19 24 15 27 16 27 19 27 31 29 17 21 10 32 28 19 16 24 13 10 5 5 12 2 8 10 23 35 42 43 42 52 48
35 26 23 30 25 18 4 11 5 8 9 20 17 11 10 26 19 20 26 18 21 31 16 17 10 27 21 20 19 15 12 9 10 11 4 9 9 25 39 42 52 55 56 57 54
28 14 17 28 21 18 9 8 4 7 10 9 13 12 13 26 21 24 27 12 20 31 12 10 15 16 21 19 18 16 19 5 5 6 7 12 12 18 44 44 43 43 55 65 57
18 5 16 21 12 16 8 8 6 7 9 9 9 12 10 14 15 14 17 8 24 27 19 12 5 20 12 17 19 20 17 12 8 7 8 6 9 15 29 28 34 36 48 57 59
6 4 17 11 8 9 6 5 4 6 7 4 5 10 10 18 9 11 15 11 30 30 18 10 8 12 8 9 6 9 24 16 10 15 8 7 9 19 27 28 41 49 54 57 55
2 2 12 4 5 6 8 8 6 3 7 6 6 8 7 11 8 10 13 15 23 20 25 16 5 14 4 6 16 12 35 25 19 10 15 12 9 23 33 35 48 53 63 69 66
0 2 13 20 12 9 10 7 6 5 4 6 5 4 11 6 4 11 18 9 23 17 24 16 6 7 13 17 17 20 29 31 15 7 16 15 14 35 41 38 43 59 59 61 60
4 5 4 5 8 16 8 4 6 4 2 3 1 6 10 5 7 7 11 18 10 15 19 10 7 19 22 12 3 22 27 25 21 22 14 20 11 30 35 34 39 45 56 59 66
3 10 11 11 12 11 5 2 4 5 2 2 1 11 9 5 5 13 14 6 6 18 11 14 9 23 6 9 4 8 31 28 18 24 17 18 8 35 43 43 41 45 56 56 59
8 19 8 9 7 4 4 7 6 6 4 2 5 13 9 7 15 22 24 29 27 17 11 11 14 13 4 12 11 10 19 21 9 19 22 15 22 43 38 46 36 43 53 54 65
Wind_Direction_850mb
18 12 8 2 359 356 355 354 356 3 10 19 52 77 101 97 58 35 21 353 341 335 333 326 322 313 312 283 266 258 244 258 262 258 261 273 303 279 241 243 261 288 286 33 351
14 7 4 359 358 356 354 354 356 9 27 49 67 52 167 96 51 24 351 342 333 331 333 327 326 326 312 294 270 247 249 257 256 306 283 280 279 281 290 211 256 269 259 280 334
11 5 1 357 357 356 354 355 5 24 42 61 60 40 20 218 261 357 337 340 339 335 322 316 312 311 298 304 279 259 251 274 287 250 179 289 297 270 284 265 216 253 259 284 276
9 4 358 357 357 355 353 357 19 52 45 69 53 42 55 150 343 337 334 335 335 331 321 315 314 305 306 302 305 271 269 278 278 285 274 222 286 274 268 272 283 229 256 242 267
6 1 359 357 355 355 353 3 36 32 39 103 60 57 25 354 343 336 336 332 331 319 313 310 310 322 305 310 305 284 276 288 287 274 270 259 240 261 272 268 289 258 250 261 280
2 0 359 358 354 355 355 18 51 42 48 115 94 54 20 31 338 321 331 336 336 333 314 306 308 308 289 299 292 291 298 289 273 260 239 246 246 238 253 258 255 240 233 260 336
359 357 359 359 355 355 2 27 85 56 32 327 252 301 322 7 350 339 340 334 331 324 308 309 301 296 311 309 317 289 289 278 243 239 223 238 243 241 250 249 233 226 247 262 310
357 356 357 0 359 358 7 19 298 295 38 33 345 340 329 341 344 340 344 339 326 315 302 295 293 286 274 301 279 243 228 290 101 225 210 211 255 249 231 223 222 244 277 268 303
353 354 357 359 3 0 7 59 19 301 281 344 8 296 337 340 352 350 345 335 328 331 306 295 292 283 304 316 287 268 341 351 342 52 322 206 257 180 220 176 204 235 292 306 305
352 353 356 359 2 7 336 336 30 33 351 356 356 259 346 339 332 345 341 336 329 329 305 285 261 308 358 359 354 332 335 323 319 0 325 238 246 308 112 178 138 94 305 283 291
351 354 356 357 360 12 13 275 305 184 43 55 24 23 328 332 344 350 348 342 343 306 336 256 314 355 346 344 322 301 293 304 311 346 283 263 240 180 146 125 48 35 339 282 282
351 353 356 356 3 15 30 62 112 155 55 35 8 339 348 344 339 357 353 357 342 341 340 220 17 351 322 333 319 295 293 328 327 280 299 276 246 163 164 150 156 100 28 332 304
351 352 356 358 356 11 31 53 142 122 290 356 354 346 350 343 352 356 0 342 349 335 355 330 3 331 322 340 351 348 357 340 307 312 268 275 216 169 143 120 150 15 358 325 309
347 349 357 2 15 1 5 22 125 115 270 13 353 12 351 348 241 357 0 351 2 336 342 311 356 344 335 5 346 302 356 320 306 309 296 351 128 126 145 153 34 358 12 328 223
344 348 356 4 358 358 353 24 102 75 300 357 3 350 358 31 339 354 1 355 10 334 326 20 348 350 353 346 332 327 322 293 278 298 322 127 240 30 42 17 355 348 341 343 81
342 345 357 1 1 358 7 53 88 262 19 7 1 353 352 9 10 348 11 17 28 339 323 306 296 311 346 313 301 324 333 249 242 312 260 336 1 38 16 352 356 355 333 306 13
338 343 356 357 354 356 5 58 2 43 347 341 338 341 339 350 7 4 20 40 36 357 359 324 74 7 5 343 331 355 343 190 179 209 49 18 61 50 14 2 358 357 357 1 20
336 341 354 356 359 4 26 281 51 345 360 356 334 326 23 13 359 352 8 23 33 15 303 340 329 8 352 356 313 313 338 352 319 161 121 102 90 56 35 6 6 8 358 17 27
336 341 355 354 1 13 323 50 44 19 353 338 317 343 9 13 348 349 17 26 18 15 6 349 301 341 355 337 346 341 6 313 286 240 233 102 75 227 9 10 6 6 3 360 1
336 332 338 354 8 43 58 93 59 33 348 341 357 9 331 351 360 4 12 33 356 3 29 2 295 327 337 330 11 336 328 296 280 286 141 94 64 5 3 359 350 0 360 350 357
335 298 330 353 26 60 69 62 96 58 17 7 348 320 341 347 334 349 355 28 8 349 349 318 258 316 343 20 354 5 21 340 287 320 329 137 78 14 6 3 348 352 357 350 350
336 277 342 7 29 52 86 81 89 54 38 30 323 326 326 333 324 326 345 356 354 342 348 18 301 296 329 22 347 315 17 349 342 350 347 318 83 18 14 1 0 356 357 356 3
264 327 354 61 80 98 114 97 75 65 39 20 16 5 346 319 319 341 343 357 357 354 360 350 346 308 181 218 21 4 355 338 308 247 8 326 86 17 7 8 7 2 1 1 3
90 33 29 58 67 107 121 107 125 81 79 13 342 302 348 318 324 308 332 349 344 355 351 328 290 330 316 324 332 353 356 358 327 339 334 33 23 6 2 359 357 1 1 2 4
105 100 88 51 57 97 88 145 127 121 80 15 263 0 349 298 306 318 336 334 345 10 0 16 286 331 303 282 333 31 13 10 20 355 27 343 36 9 353 346 347 356 359 2 7
145 135 91 88 109 105 14 102 131 130 106 105 308 333 306 248 322 306 333 324 331 340 354 341 310 326 278 220 236 358 22 6 21 3 358 348 62 1 343 343 349 360 0 357 358
172 147 150 145 128 155 109 149 142 144 162 319 327 313 290 300 307 295 286 277 279 303 319 332 333 337 322 333 311 207 12 358 354 23 343 15 338 338 341 344 346 3 358 352 355